Bradshaw AFB, HI

5:50 AM HST on April 19, 2018 (GMT -1000)
Bradshaw Army Air Field

Weather History for PHSF - October, 2013

Change the Weather History Date:

Tuesday, October 29, 2013

  Actual Average Record
Temperature  
Mean Temperature 57 °F -  
Max Temperature 68 °F 67 °F 78 °F (2008)
Min Temperature 45 °F 48 °F 41 °F (2016)
Degree Days  
Heating Degree Days 8    
Growing Degree Days 7 (Base 50)    
Moisture  
Dew Point 45 °F    
Average Humidity 70    
Maximum Humidity 94    
Minimum Humidity 30    
Precipitation  
Precipitation 0.00 in - - ()
Sea Level Pressure  
Sea Level Pressure 30.34 in    
Wind  
Wind Speed 7 mph (SSE)    
Max Wind Speed 16 mph    
Max Gust Speed 30 mph    
Visibility 12 miles    
Events      
Averages and records for this station are not official NWS values.
T = Trace of Precipitation, MM = Missing Value Source: NWS Daily Summary

Daily Weather History Graph

Daily Weather History Graph

Search for Another Location

Airport or City:

Trip Planner

Search our weather history database for the weather conditions in past years. The results will help you decide how hot, cold, wet, or windy it might be!

Date:

Astronomy

Oct. 29, 2013 Rise Set
Actual Time 6:22 AM HST 5:49 PM HST
Civil Twilight 5:59 AM HST 6:11 PM HST
Nautical Twilight 5:33 AM HST 6:37 PM HST
Astronomical Twilight 5:07 AM HST 7:03 PM HST
Moon 2:00 AM HST (10/29) 2:35 PM HST (10/29)
Length of Visible Light 12h 12m
Length of Day
11h 27m
Waning Crescent, 23% of the Moon is Illuminated
Oct 29
Waning Crescent
Nov 3
New
Nov 9
First Quarter
Nov 17
Full
Nov 25
Last Quarter

Hourly Weather History & Observations

Time (HST) Temp. Windchill Dew Point Humidity Pressure Visibility Wind Dir Wind Speed Gust Speed Precip Events Conditions
12:56 AM 49.5 °F - 46.0 °F 88% 30.35 in 12.0 mi ESE 5.8 mph - N/A   Clear
1:56 AM 48.0 °F - 44.6 °F 88% 30.33 in 12.0 mi ESE 5.8 mph - N/A   Clear
2:56 AM 47.5 °F - 44.8 °F 90% 30.32 in 12.0 mi ESE 5.8 mph - N/A   Clear
3:56 AM 46.9 °F - 42.1 °F 83% 30.31 in 12.0 mi ESE 5.8 mph - N/A   Clear
4:56 AM 46.6 °F - 41.2 °F 81% 30.31 in 12.0 mi ESE 8.1 mph - N/A   Clear
5:56 AM 47.5 °F - 39.4 °F 73% 30.32 in 12.0 mi ESE 8.1 mph - N/A   Clear
6:56 AM 48.2 °F - 42.6 °F 81% 30.34 in 12.0 mi ESE 5.8 mph - N/A   Clear
7:56 AM 55.0 °F - 44.6 °F 68% 30.35 in 12.0 mi SE 9.2 mph - N/A   Clear
8:56 AM 60.8 °F - 42.6 °F 51% 30.36 in 12.0 mi South 4.6 mph - N/A   Clear
9:56 AM 62.6 °F - 44.4 °F 51% 30.37 in 12.0 mi SSE 11.5 mph 19.6 mph N/A   Clear
10:56 AM 65.8 °F - 45.3 °F 47% 30.35 in 12.0 mi South 12.7 mph 24.2 mph N/A   Clear
11:17 AM 66.2 °F - 41.0 °F 40% 30.34 in 12.0 mi South 12.7 mph 21.9 mph N/A   Clear
11:56 AM 68.0 °F - 35.6 °F 30% 30.33 in 12.0 mi SSE 9.2 mph 17.3 mph N/A   Partly Cloudy
12:56 PM 66.9 °F - 49.8 °F 54% 30.30 in 12.0 mi WSW 8.1 mph 13.8 mph N/A   Partly Cloudy
1:56 PM 62.6 °F - 54.7 °F 75% 30.29 in 12.0 mi West 16.1 mph 29.9 mph N/A   Scattered Clouds
2:56 PM 64.9 °F - 50.9 °F 60% 30.30 in 12.0 mi WSW 6.9 mph - N/A   Partly Cloudy
3:56 PM 63.0 °F - 51.6 °F 66% 30.30 in 12.0 mi WSW 5.8 mph - N/A   Partly Cloudy
4:56 PM 58.6 °F - 52.7 °F 81% 30.32 in 12.0 mi West 10.4 mph - N/A   Mostly Cloudy
5:46 PM 57.2 °F - 53.6 °F 88% 30.34 in 12.0 mi WSW 4.6 mph - N/A   Mostly Cloudy
5:56 PM 56.8 °F - 46.6 °F 69% 30.34 in 12.0 mi SSW 5.8 mph - N/A   Overcast
6:06 PM 57.2 °F - 48.2 °F 72% 30.34 in 12.0 mi SSW 4.6 mph - N/A   Scattered Clouds
6:56 PM 53.8 °F - 52.2 °F 94% 30.36 in 12.0 mi West 3.5 mph - N/A   Partly Cloudy
7:56 PM 52.2 °F - 49.5 °F 91% 30.38 in 12.0 mi SE 3.5 mph - N/A   Clear
8:56 PM 51.1 °F - 34.2 °F 52% 30.39 in 12.0 mi East 1.2 mph - N/A   Clear
9:56 PM 48.7 °F - 39.2 °F 70% 30.39 in 12.0 mi SSE 3.5 mph - N/A   Clear
10:56 PM 47.7 °F - 38.5 °F 70% 30.39 in 12.0 mi ESE 4.6 mph - N/A   Clear
11:56 PM 45.9 °F 42.9 °F 37.9 °F 74% 30.37 in 12.0 mi ESE 5.8 mph - N/A   Clear